Weather History for K0E0 - June, 2013

Change the Weather History Date:

Saturday, June 15, 2013

  Actual Average (KABQ) Record (KABQ)
Temperature  
Mean Temperature 68 °F 75 °F  
Max Temperature 90 °F 89 °F 100 °F (1939)
Min Temperature 46 °F 62 °F 42 °F (1907)
Degree Days  
Heating Degree Days 0 0  
Month to date heating degree days 0  
Since 1 June heating degree days 0  
Since 1 July heating degree days 4175  
Cooling Degree Days 3 10  
Month to date cooling degree days 122  
Year to date cooling degree days 220  
Since 1 June cooling degree days 122  
Growing Degree Days 18 (Base 50)    
Moisture  
Dew Point 39 °F    
Average Humidity 46    
Maximum Humidity 95    
Minimum Humidity 11    
Precipitation  
Precipitation 0.00 in 0.02 in 0.58 in (1969)
Month to date precipitation 0.23  
Year to date precipitation 2.77  
Snow  
Snow 0.00 in - - ()
Month to date snowfall  
Since 1 June snowfall  
Since 1 July snowfall  
Snow Depth -    
Sea Level Pressure  
Sea Level Pressure 30.16 in    
Wind  
Wind Speed 6 mph (WNW)    
Max Wind Speed 25 mph    
Max Gust Speed 38 mph    
Visibility 10 miles    
Events      
T = Trace of Precipitation, MM = Missing Value Source: NWS Daily Summary

Daily Weather History Graph

Daily Weather History Graph

Search for Another Location

Airport or City:

Trip Planner

Search our weather history database for the weather conditions in past years. The results will help you decide how hot, cold, wet, or windy it might be!

Date:

Astronomy

Jun. 15, 2013 Rise Set
Actual Time 5:49 AM MDT 8:19 PM MDT
Civil Twilight 5:19 AM MDT 8:49 PM MDT
Nautical Twilight 4:43 AM MDT 9:26 PM MDT
Astronomical Twilight 4:02 AM MDT 10:06 PM MDT
Moon 12:13 PM MDT (6/15) 12:09 AM MDT (6/15)
Length of Visible Light 15h 29m
Length of Day
14h 30m
Waxing Crescent, 40% of the Moon is Illuminated
Jun 15
Waxing Crescent
Jun 16
First Quarter
Jun 23
Full
Jun 29
Last Quarter
Jul 8
New

Hourly Weather History & Observations

Time (MDT) Temp. Windchill Dew Point Humidity Pressure Visibility Wind Dir Wind Speed Gust Speed Precip Events Conditions
12:15 AM 54.3 °F - 49.8 °F 85% 30.17 in 10.0 mi West 5.8 mph - N/A   Clear
12:35 AM 52.7 °F - 49.3 °F 88% 30.16 in 10.0 mi Calm Calm - N/A   Clear
12:55 AM 52.9 °F - 48.9 °F 86% 30.16 in 10.0 mi Calm Calm - N/A   Clear
1:15 AM 51.1 °F - 48.4 °F 90% 30.16 in 10.0 mi Calm Calm - N/A   Clear
1:35 AM 51.8 °F - 49.3 °F 91% 30.16 in 10.0 mi Calm Calm - N/A   Clear
1:55 AM 51.8 °F - 49.1 °F 90% 30.16 in 10.0 mi Calm Calm - N/A   Clear
2:15 AM 50.5 °F - 48.6 °F 93% 30.16 in 10.0 mi NNE 3.5 mph - N/A   Clear
2:35 AM 50.4 °F - 48.6 °F 94% 30.15 in 10.0 mi NE 5.8 mph - N/A   Clear
2:55 AM 50.0 °F - 48.2 °F 94% 30.14 in 10.0 mi NE 3.5 mph - N/A   Clear
3:15 AM 48.4 °F - 46.6 °F 93% 30.15 in 10.0 mi NW 6.9 mph - N/A   Clear
3:35 AM 48.9 °F - 47.3 °F 94% 30.14 in 10.0 mi NNW 5.8 mph - N/A   Clear
3:55 AM 47.8 °F - 45.7 °F 92% 30.14 in 10.0 mi North 4.6 mph - N/A   Clear
4:15 AM 48.0 °F - 46.2 °F 93% 30.14 in 10.0 mi North 5.8 mph - N/A   Clear
4:35 AM 47.3 °F - 45.7 °F 94% 30.15 in 10.0 mi Calm Calm - N/A   Clear
4:55 AM 46.9 °F - 45.3 °F 94% 30.15 in 10.0 mi ENE 3.5 mph - N/A   Clear
5:15 AM 46.4 °F 43.5 °F 45.0 °F 95% 30.16 in 10.0 mi NNE 5.8 mph - N/A   Clear
5:35 AM 46.8 °F - 45.3 °F 95% 30.16 in 10.0 mi NNE 3.5 mph - N/A   Clear
5:55 AM 46.4 °F 45.2 °F 44.6 °F 93% 30.17 in 10.0 mi NE 3.5 mph - N/A   Clear
6:15 AM 46.4 °F 41.9 °F 44.4 °F 93% 30.18 in 10.0 mi South 9.2 mph - N/A   Clear
6:35 AM 47.1 °F - 45.0 °F 92% 30.18 in 10.0 mi South 5.8 mph - N/A   Clear
6:55 AM 50.2 °F - 47.3 °F 90% 30.19 in 10.0 mi WSW 3.5 mph - N/A   Clear
7:15 AM 51.6 °F - 48.2 °F 88% 30.19 in 10.0 mi West 4.6 mph - N/A   Clear
7:35 AM 54.1 °F - 49.3 °F 84% 30.19 in 10.0 mi WSW 4.6 mph - N/A   Clear
7:55 AM 56.3 °F - 50.0 °F 79% 30.20 in 10.0 mi Calm Calm - N/A   Clear
8:15 AM 59.2 °F - 50.4 °F 73% 30.20 in 10.0 mi Calm Calm - N/A   Clear
8:35 AM 62.8 °F - 51.4 °F 66% 30.21 in 10.0 mi Calm Calm - N/A   Clear
8:55 AM 65.3 °F - 50.5 °F 59% 30.21 in 10.0 mi South 4.6 mph - N/A   Clear
9:15 AM 67.5 °F - 49.8 °F 53% 30.20 in 10.0 mi Calm Calm - N/A   Clear
9:35 AM 69.8 °F - 48.9 °F 47% 30.20 in 10.0 mi Calm Calm - N/A   Clear
9:55 AM 72.0 °F - 47.5 °F 42% 30.20 in 10.0 mi Calm Calm - N/A   Clear
10:15 AM 72.7 °F - 47.5 °F 41% 30.20 in 10.0 mi Calm Calm - N/A   Clear
10:35 AM 74.1 °F - 47.1 °F 38% 30.19 in 10.0 mi Calm Calm - N/A   Clear
10:55 AM 76.3 °F - 47.1 °F 36% 30.19 in 10.0 mi NE 5.8 mph - N/A   Clear
11:15 AM 78.1 °F - 46.6 °F 33% 30.19 in 10.0 mi ENE 3.5 mph - N/A   Clear
11:35 AM 80.2 °F - 44.2 °F 28% 30.19 in 10.0 mi North 4.6 mph - N/A   Clear
11:55 AM 83.5 °F - 40.3 °F 22% 30.18 in 10.0 mi NE 3.5 mph - N/A   Clear
12:15 PM 84.7 °F - 37.0 °F 18% 30.17 in 10.0 mi NNW 10.4 mph - N/A   Clear
12:35 PM 86.0 °F - 35.2 °F 16% 30.17 in 10.0 mi NW 8.1 mph - N/A   Scattered Clouds
12:55 PM 86.2 °F - 36.3 °F 17% 30.17 in 10.0 mi NW 6.9 mph - N/A   Clear
1:15 PM 88.5 °F - 32.7 °F 14% 30.16 in 10.0 mi NNW 9.2 mph 19.6 mph N/A   Scattered Clouds
1:35 PM 87.4 °F - 32.2 °F 14% 30.16 in 10.0 mi NW 5.8 mph 18.4 mph N/A   Scattered Clouds
1:55 PM 88.3 °F - 30.2 °F 12% 30.15 in 10.0 mi SW 16.1 mph 38.0 mph N/A   Clear
2:15 PM 88.2 °F - 28.4 °F 12% 30.15 in 10.0 mi West 10.4 mph - N/A   Clear
2:35 PM 89.4 °F - 29.1 °F 11% 30.14 in 10.0 mi West 5.8 mph 26.5 mph N/A   Clear
2:55 PM 89.4 °F - 28.8 °F 11% 30.13 in 10.0 mi WNW 11.5 mph 19.6 mph N/A   Clear
3:15 PM 90.5 °F - 29.1 °F 11% 30.13 in 10.0 mi West 15.0 mph 20.7 mph N/A   Clear
3:35 PM 89.2 °F - 29.5 °F 12% 30.12 in 10.0 mi NW 6.9 mph 21.9 mph N/A   Clear
3:55 PM 90.0 °F - 29.8 °F 12% 30.11 in 10.0 mi WSW 12.7 mph 23.0 mph N/A   Clear
4:15 PM 89.4 °F - 30.0 °F 12% 30.11 in 10.0 mi West 5.8 mph - N/A   Clear
4:35 PM 86.5 °F - 29.3 °F 13% 30.10 in 10.0 mi WNW 13.8 mph 18.4 mph N/A   Clear
4:55 PM 87.3 °F - 30.4 °F 13% 30.10 in 10.0 mi WNW 8.1 mph - N/A   Clear
5:15 PM 87.1 °F - 29.7 °F 13% 30.09 in 10.0 mi WSW 11.5 mph - N/A   Clear
5:35 PM 88.7 °F - 30.2 °F 12% 30.09 in 10.0 mi WSW 21.9 mph 25.3 mph N/A   Clear
5:55 PM 88.2 °F - 30.2 °F 12% 30.09 in 10.0 mi WSW 18.4 mph 24.2 mph N/A   Clear
6:15 PM 86.7 °F - 30.2 °F 13% 30.10 in 10.0 mi West 18.4 mph 26.5 mph N/A   Clear
6:35 PM 86.7 °F - 30.6 °F 13% 30.10 in 10.0 mi West 17.3 mph 27.6 mph N/A   Clear
6:55 PM 85.8 °F - 30.2 °F 13% 30.10 in 10.0 mi West 16.1 mph 20.7 mph N/A   Clear
7:15 PM 83.5 °F - 30.0 °F 14% 30.11 in 10.0 mi West 17.3 mph 23.0 mph N/A   Clear
7:35 PM 81.9 °F - 29.8 °F 15% 30.12 in 10.0 mi West 16.1 mph 23.0 mph N/A   Clear
7:55 PM 81.1 °F - 30.0 °F 16% 30.12 in 10.0 mi West 11.5 mph - N/A   Clear
8:15 PM 79.2 °F - 29.8 °F 17% 30.12 in 10.0 mi West 9.2 mph - N/A   Clear
8:35 PM 77.9 °F - 29.8 °F 17% 30.13 in 10.0 mi West 6.9 mph - N/A   Clear
8:55 PM 77.5 °F - 29.5 °F 17% 30.13 in 10.0 mi West 6.9 mph - N/A   Clear
9:15 PM 77.9 °F - 28.9 °F 17% 30.14 in 10.0 mi West 9.2 mph - N/A   Clear
9:35 PM 75.7 °F - 28.9 °F 18% 30.16 in 10.0 mi West 18.4 mph 23.0 mph N/A   Clear
9:55 PM 74.7 °F - 32.2 °F 21% 30.18 in 10.0 mi NW 25.3 mph 28.8 mph N/A   Clear
10:15 PM 73.8 °F - 33.4 °F 23% 30.19 in 10.0 mi WNW 23.0 mph 32.2 mph N/A   Clear
10:35 PM 72.7 °F - 34.3 °F 25% 30.21 in 10.0 mi WNW 24.2 mph 31.1 mph N/A   Clear
10:55 PM 72.5 °F - 33.6 °F 24% 30.21 in 10.0 mi NW 25.3 mph 32.2 mph N/A   Clear
11:15 PM 71.8 °F - 33.8 °F 25% 30.22 in 10.0 mi NW 17.3 mph - N/A   Clear
11:35 PM 70.3 °F - 34.0 °F 26% 30.23 in 10.0 mi NNW 11.5 mph - N/A   Scattered Clouds
11:55 PM 70.0 °F - 34.2 °F 27% 30.23 in 10.0 mi NNW 9.2 mph - N/A   Mostly Cloudy